FENGYUN 1C DEB, 30114

Orbit data source: Space-Track

FENGYUN 1C DEB, 30114 is space debris in SSO originally from a launch on Mon, 10 May 1999 UTC launched from the Taiyaun Space Center, China (TSC). Fengyun 1C debris stems from the Chinese weather satellite Fengyun-1C, which was intentionally destroyed by a Chinese anti-satellite missile in 2007. This event dramatically increased the amount of space debris, with thousands of trackable fragments posing hazards to satellites and human spaceflight. The Fengyun 1C debris cloud has become a focal point in discussions about space sustainability and the need for international regulations to prevent the creation of new debris.

Loading next visibility...
Identifier
30114, 1999-025RT
Orbit
SSO
Country
Flag of CNCN / PRC
Related business
Manufacturer
Unknown
Mission
Spacecraft
Bus & Motor
Unknown
Mass
Unknown
Launch date (UTC)
1999-05-10 (27 years ago)
Launch vehicle
Unknown
Launch site
Taiyaun Space Center, China (TSC)
Object type
Payload
Rocket body
Debris
Shape & HBR
Unknown shape, 0.1 m
Radar Cross Section
Medium (>0.1 m² and <1 m²)

Expand to show TLE details & history
Last TLE update: 8 hours ago

TLE from 8 hours ago
0 FENGYUN 1C DEB
1 30114U 99025RT  26167.54975006  .00000167  00000-0  11634-3 0  9994
2 30114  98.7486 169.7552 0080232 315.0394 162.5873 14.09796454997723
Epoch: 2026-06-16T13:11Z
TLE epoch observation values (Epoch: 2026-06-16T13:11:38.405Z)
Latitude
60.96084°
Longitude
-96.96946°
Altitude
925.902 km
Speed
7.366 km/s
True Right ascension
00h 23m 02s
True Declination
60° 49' 05"
Sunlit
Object was in daylight at epoch
Visualization orbit readout
Latitude
Unknown
Longitude
Unknown
Altitude
Unknown
Speed
Unknown
Apparent Right ascension
Unknown
Apparent Declination
Unknown
Sunlit
N/A
Visualization observer readout
Local Sidereal Time
07:36:28
Azimuth
Unknown
Elevation
Unknown
Doppler factor
Unknown
Orbital elements
Apogee altitude
915.293 km
Perigee altitude
799.191 km
Semi-major axis
7,235.379 km
Eccentricity
0.00802
Inclination
98.7486°
RAAN
169.7552°
Arg. of periapsis
315.0394°
True anomaly
162.85982°
Mean anomaly
162.5873°
Eccentric anomaly
162.72382°
Mean motion
3.52656 °/min
Orbital period
102.08 mins
BSTAR
0.00011634
Loading maneuver chart data...
Computing Atmospheric mass density...

Documentation

Showing up to 5 results
|